EW8081 Weather Reports


Display with metric or nautical units.
time (UTC)temp
F
wind
direction
speed
MPH
gust
MPH
rain 1hr
in
rain 24hr
in
rain mn
in
humidity
%
barometer
mb
20260504031529 67 10 0.0 4.0 0.01 0.02 0.02 82 1014.4
20260504030040 67 360 1.0 5.0 0.02 0.02 0.02 83 1014.7
20260504024528 67 330 1.0 3.0 0.02 0.02 0.02 84 1015.0
20260504023027 67 344 1.0 5.0 0.02 0.02 0.02 82 1015.2
20260504021526 68 325 2.0 7.0 0.02 0.02 0.02 81 1015.5
20260504020026 69 314 2.0 6.0 0.01 0.01 0.01 79 1015.7
20260504014536 70 10 0.0 3.0 0.00 0.00 0.00 77 1016.0
20260504013025 70 10 1.0 3.0 0.00 0.00 0.00 75 1016.0
20260504011524 70 10 0.0 3.0 0.00 0.00 0.00 74 1016.3
20260504010028 71 38 0.0 4.0 0.00 0.00 0.00 74 1016.4
20260504004524 72 41 2.0 6.0 0.00 0.00 0.00 70 1016.1
20260504003030 72 41 1.0 4.0 0.00 0.00 0.00 73 1016.1
20260504001519 71 16 0.0 4.0 0.00 0.00 0.00 79 1016.2
20260504000015 70 47 1.0 5.0 0.00 0.00 0.00 82 1016.2
20260503234529 69 46 3.0 6.0 0.00 0.00 0.00 81 1016.2
20260503233012 69 10 2.0 5.0 0.00 0.00 0.00 80 1016.1
20260503231513 69 54 1.0 6.0 0.00 0.00 0.00 79 1016.4
20260503230009 69 58 3.0 6.0 0.00 0.00 0.00 78 1016.2
20260503224508 69 62 2.0 8.0 0.00 0.00 0.00 79 1016.1
20260503223005 69 59 3.0 6.0 0.00 0.00 0.00 81 1015.9
20260503221504 68 18 3.0 7.0 0.00 0.00 0.00 80 1015.7
20260503220002 68 25 2.0 8.0 0.00 0.00 0.00 80 1015.6
20260503214501 66 5 3.0 8.0 0.00 0.00 0.00 84 1015.5
20260503213112 65 37 4.0 6.0 0.00 0.00 0.00 86 1015.4
20260503211600 65 36 2.0 5.0 0.00 0.00 0.00 87 1015.4
20260503210201 64 27 1.0 6.0 0.00 0.00 0.00 87 1015.2
20260503204609 63 39 2.0 4.0 0.00 0.00 0.00 87 1015.2
20260503203105 63 40 2.0 4.0 0.00 0.00 0.00 88 1014.9
20260503201603 63 46 1.0 4.0 0.00 0.00 0.00 88 1014.9
20260503200101 63 49 1.0 4.0 0.00 0.00 0.00 89 1014.8
20260503194556 63 51 0.0 3.0 0.00 0.00 0.00 89 1014.7
20260503193100 62 20 0.0 2.0 0.00 0.00 0.00 88 1014.6
20260503191615 62 19 0.0 4.0 0.00 0.00 0.00 88 1014.6
20260503190055 63 18 0.0 3.0 0.00 0.00 0.00 87 1014.6
20260503184558 63 33 1.0 4.0 0.00 0.00 0.00 87 1014.6
20260503183110 63 78 1.0 3.0 0.00 0.00 0.00 87 1014.6
20260503181550 63 10 1.0 4.0 0.00 0.00 0.00 88 1014.4
20260503180049 63 54 1.0 4.0 0.00 0.00 0.00 87 1014.5
20260503174545 64 42 1.0 3.0 0.00 0.00 0.00 86 1014.5
20260503173108 64 41 0.0 4.0 0.00 0.00 0.00 86 1014.8
20260503171542 65 60 1.0 3.0 0.00 0.00 0.00 85 1014.9
20260503100107 71 36 8.0 17.0 0.00 0.00 0.00 82 1017.1
20260503081556 71 323 9.0 17.0 0.00 0.00 0.00 82 1017.1
20260503071554 71 10 9.0 17.0 0.00 0.00 0.00 78 1016.9
20260503070104 71 89 9.0 15.0 0.00 0.00 0.00 77 1016.9
20260503054547 76 24 6.0 18.0 0.00 0.00 0.00 69 1017.1
20260503053046 77 24 8.0 21.0 0.00 0.00 0.00 68 1017.3
20260503051545 77 5 8.0 14.0 0.00 0.00 0.00 68 1017.4
20260503050043 76 353 8.0 17.0 0.00 0.00 0.00 71 1017.4
20260503044540 75 353 8.0 19.0 0.00 0.00 0.00 69 1017.6
20260503043042 77 81 7.0 20.0 0.00 0.00 0.00 66 1017.6
20260503041539 77 5 6.0 16.0 0.00 0.00 0.00 66 1017.8
20260503040046 77 311 8.0 16.0 0.00 0.00 0.00 66 1017.7
20260503034545 77 39 8.0 14.0 0.00 0.00 0.00 64 1017.6
20260503033039 77 351 7.0 15.0 0.00 0.00 0.00 64 1017.9